Terminal Aerodrome Forecast
Issued by NWS

Home | Current Version | Previous Version | Text Only | Print | Product List | Glossary On
Versions: 1 2 3 4 5 6 7 8 9 10 11 12 13 14 15 16 17 18 19 20 21 22 23 24 25 26 27 28 29 30 31 32 33 34 35 36 37 38 39 40 41 42 43 44 45 46 47 48 49 50
000
FTUS44 KHGX 270133 AAB
TAFSGR
TAF AMD
KSGR 270133Z 2702/2724 12004KT P6SM VCSH FEW026 BKN050 OVC070
     FM270500 14006KT P6SM SCT009 BKN015 OVC035
     FM270900 16009KT P6SM SCT008 OVC015
     FM271300 17011KT P6SM VCSH BKN015 BKN060
     FM271800 15016G22KT P6SM VCTS OVC019CB
     FM272300 16011G19KT P6SM SCT035 OVC050=

USA.gov is the U.S. government's official web portal to all federal, state and local government web resources and services.